Location: Strawberry
(45.6646°N, 111.9596°W)
Time: 20:26:15
(UTC+00:00)

BEESAT - Pass Details

Date: 06 December 2022
Orbit: 697 x 707 km, 98.5° (Epoch: 07 February)

Event Time Altitude Azimuth Distance (km) Brightness Sun altitude
Rises 13:48:42 0° 116° (ESE) 3,093 ? -11.0°
Reaches altitude 10° 13:51:46 10° 95° (E) 2,181 ? -10.5°
Maximum altitude 13:54:33 16° 59° (ENE) 1,825 ? -10.0°
Drops below altitude 10° 13:57:22 10° 23° (NNE) 2,191 ? -9.6°
Sets 14:00:26 0° 2° (N) 3,116 ? -9.1°
